EW9544 Weather Reports


Display with metric or nautical units.
time (UTC)temp
F
wind
direction
speed
MPH
gust
MPH
rain 1hr
in
rain 24hr
in
rain mn
in
humidity
%
barometer
mb
20260502232459 54 214 0.0 0.0 0.00 0.00 0.00 78 1008.4
20260502232000 54 214 0.0 0.0 0.00 0.00 0.00 78 1008.4
20260502230959 54 212 0.0 0.0 0.00 0.00 0.00 78 1008.3
20260502230459 54 212 0.0 1.0 0.00 0.00 0.00 79 1008.3
20260502230000 54 212 0.0 1.0 0.00 0.00 0.00 80 1008.3
20260502225459 53 214 0.0 1.0 0.00 0.00 0.00 81 1008.4
20260502225000 54 216 0.0 2.0 0.00 0.00 0.00 81 1008.4
20260502223958 54 228 2.0 5.0 0.00 0.00 0.00 81 1008.2
20260502223457 54 225 2.0 6.0 0.00 0.00 0.00 81 1008.1
20260502222957 54 244 2.0 6.0 0.00 0.00 0.00 80 1008.2
20260502222457 54 224 2.0 6.0 0.00 0.00 0.00 79 1008.3
20260502221957 54 229 1.0 5.0 0.00 0.00 0.00 79 1008.3
20260502221457 54 224 0.0 4.0 0.00 0.00 0.00 79 1008.3
20260502220957 54 217 1.0 4.0 0.00 0.00 0.00 79 1008.2
20260502220458 54 216 1.0 3.0 0.00 0.00 0.00 80 1008.2
20260502215958 54 239 0.0 3.0 0.00 0.00 0.00 81 1008.2
20260502215456 54 218 1.0 3.0 0.00 0.00 0.00 81 1008.2
20260502214955 54 210 1.0 5.0 0.00 0.00 0.00 81 1008.2
20260502213954 55 246 1.0 4.0 0.00 0.00 0.00 79 1008.2
20260502212955 54 222 2.0 7.0 0.00 0.00 0.00 78 1008.2
20260502212456 54 226 2.0 7.0 0.00 0.00 0.00 78 1008.1
20260502211955 54 229 2.0 5.0 0.00 0.00 0.00 79 1008.0
20260502210955 54 233 2.0 6.0 0.00 0.00 0.00 79 1008.0
20260502210453 54 224 3.0 7.0 0.00 0.00 0.00 79 1008.0
20260502205954 54 222 2.0 7.0 0.00 0.00 0.00 78 1008.0
20260502205452 54 231 1.0 5.0 0.00 0.00 0.00 78 1008.0
20260502204953 54 232 3.0 7.0 0.00 0.00 0.00 78 1008.0
20260502204454 54 228 4.0 9.0 0.00 0.00 0.00 78 1008.0
20260502203453 55 216 3.0 8.0 0.00 0.00 0.00 76 1008.1
20260502202954 56 230 2.0 7.0 0.00 0.00 0.00 74 1008.1
20260502201952 55 212 1.0 3.0 0.00 0.00 0.00 76 1008.3
20260502200951 54 227 1.0 4.0 0.00 0.00 0.00 79 1008.5
20260502200451 54 237 1.0 5.0 0.00 0.00 0.00 80 1008.6
20260502195951 54 226 3.0 7.0 0.00 0.00 0.00 79 1008.7
20260502195451 55 231 2.0 7.0 0.00 0.00 0.00 76 1008.7
20260502194450 56 237 2.0 7.0 0.00 0.00 0.00 72 1008.5
20260502193951 56 231 2.0 7.0 0.00 0.00 0.00 70 1008.7
20260502193451 57 225 0.0 4.0 0.00 0.00 0.00 68 1008.8
20260502192951 58 226 0.0 2.0 0.00 0.00 0.00 62 1008.9
20260502192451 59 154 0.0 4.0 0.00 0.00 0.00 63 1008.9
20260502191950 59 96 0.0 10.0 0.00 0.00 0.00 65 1009.0
20260502191451 59 95 0.0 10.0 0.00 0.00 0.00 65 1009.1
20260502190951 59 138 0.0 3.0 0.00 0.00 0.00 63 1009.1
20260502185950 59 112 0.0 2.0 0.00 0.00 0.00 65 1009.2
20260502184952 57 35 0.0 3.0 0.00 0.00 0.00 67 1009.3
20260502184452 57 75 0.0 6.0 0.00 0.00 0.00 69 1009.4
20260502183950 56 66 0.0 6.0 0.00 0.00 0.00 69 1009.4
20260502182950 56 38 0.0 4.0 0.00 0.00 0.00 71 1009.5
20260502182450 57 146 0.0 1.0 0.00 0.00 0.00 75 1009.5
20260502181950 57 235 0.0 2.0 0.00 0.00 0.00 77 1009.5
20260502181451 56 246 1.0 6.0 0.00 0.00 0.00 77 1009.4
20260502180950 56 251 1.0 7.0 0.00 0.00 0.00 76 1009.3
20260502180452 56 270 1.0 7.0 0.00 0.00 0.00 77 1009.3
20260502170446 54 258 1.0 6.0 0.00 0.00 0.00 81 1009.7
20260502163445 54 274 1.0 6.0 0.00 0.00 0.00 81 1009.8
20260502162944 54 248 1.0 6.0 0.00 0.00 0.00 81 1009.9
20260502161945 53 257 4.0 9.0 0.00 0.00 0.00 82 1010.0
20260502161444 53 254 5.0 10.0 0.00 0.00 0.00 83 1010.0
20260502160945 53 241 4.0 10.0 0.00 0.00 0.00 83 1010.1
20260502160443 53 249 3.0 9.0 0.00 0.00 0.00 83 1010.1
20260502151942 53 251 1.0 4.0 0.00 0.00 0.00 83 1010.3
20260502150942 53 247 1.0 4.0 0.00 0.00 0.00 83 1010.3
20260502150440 53 249 1.0 3.0 0.00 0.00 0.00 84 1010.3
20260502130437 51 230 0.0 1.0 0.00 0.00 0.00 88 1010.8
20260502123433 50 195 0.0 1.0 0.00 0.00 0.00 88 1010.7
20260502122934 50 195 0.0 0.0 0.00 0.00 0.00 88 1010.5
20260502122434 50 195 0.0 0.0 0.00 0.00 0.00 88 1010.4
20260502121934 51 193 0.0 0.0 0.00 0.00 0.00 89 1010.4
20260502121433 51 193 0.0 0.0 0.00 0.00 0.00 89 1010.4
20260502120435 50 189 0.0 1.0 0.00 0.00 0.00 89 1010.5
20260502115432 50 210 0.0 1.0 0.00 0.00 0.00 88 1010.5
20260502113933 51 97 0.0 0.0 0.00 0.00 0.00 89 1010.6
20260502113431 50 96 0.0 1.0 0.00 0.00 0.00 89 1010.5
20260502112932 50 95 0.0 1.0 0.00 0.00 0.00 89 1010.6
20260502112432 50 90 0.0 1.0 0.00 0.00 0.00 90 1010.4
20260502111931 50 89 0.0 0.0 0.00 0.00 0.00 90 1010.4
20260502111433 50 90 0.0 0.0 0.00 0.00 0.00 90 1010.3
20260502110932 49 89 0.0 1.0 0.00 0.00 0.00 90 1010.2
20260502110431 49 90 0.0 1.0 0.00 0.00 0.00 89 1010.2
20260502105430 50 85 0.0 1.0 0.00 0.00 0.00 89 1010.1
20260502104930 50 93 0.0 1.0 0.00 0.00 0.00 89 1009.7
20260502104429 50 197 0.0 1.0 0.00 0.00 0.00 89 1009.8
20260502103930 50 161 0.0 1.0 0.00 0.00 0.00 89 1010.1
20260502103428 50 89 0.0 1.0 0.00 0.00 0.00 88 1010.0
20260502102928 50 83 0.0 1.0 0.00 0.00 0.00 88 1010.0
20260502102428 50 73 0.0 0.0 0.00 0.00 0.00 88 1010.1
20260502101428 50 74 0.0 1.0 0.00 0.00 0.00 88 1010.3
20260502100927 50 74 0.0 1.0 0.00 0.00 0.00 88 1010.3
20260502090925 50 85 0.0 0.0 0.00 0.00 0.00 87 1010.0
20260502090427 50 85 0.0 1.0 0.00 0.00 0.00 87 1010.0
20260502071421 51 256 1.0 3.0 0.00 0.00 0.00 83 1009.7
20260502070922 51 245 1.0 3.0 0.00 0.00 0.00 84 1009.7
20260502070421 51 256 0.0 2.0 0.00 0.00 0.00 85 1009.7
20260502065921 51 241 0.0 1.0 0.00 0.00 0.00 86 1009.8
20260502065421 51 249 0.0 1.0 0.00 0.00 0.00 87 1009.9
20260502064921 51 248 0.0 2.0 0.00 0.00 0.00 87 1009.8
20260502064421 51 226 0.0 2.0 0.00 0.00 0.00 87 1009.8
20260502063921 51 229 0.0 0.0 0.00 0.00 0.00 87 1009.9
20260502063421 50 228 0.0 0.0 0.00 0.00 0.00 87 1009.8
20260502062919 50 229 0.0 0.0 0.00 0.00 0.00 86 1009.9
20260502062420 50 229 0.0 0.0 0.00 0.00 0.00 86 1009.8
20260502061920 50 229 0.0 0.0 0.00 0.00 0.00 86 1009.9
20260502061419 51 229 0.0 1.0 0.00 0.00 0.00 86 1009.9
20260502060920 51 229 0.0 1.0 0.00 0.00 0.00 86 1010.0
20260502060420 51 228 0.0 0.0 0.00 0.00 0.00 86 1010.1
20260502055921 51 229 0.0 0.0 0.00 0.00 0.00 85 1010.1
20260502055419 51 229 0.0 0.0 0.00 0.00 0.00 85 1010.0
20260502054917 51 228 0.0 0.0 0.00 0.00 0.00 85 1010.0
20260502053917 51 228 0.0 0.0 0.00 0.00 0.00 84 1010.1
20260502053417 51 228 0.0 0.0 0.00 0.00 0.00 85 1010.1
20260502052917 51 228 0.0 0.0 0.00 0.00 0.00 84 1010.1
20260502052417 51 228 0.0 1.0 0.00 0.00 0.00 84 1010.1
20260502051918 51 228 0.0 1.0 0.00 0.00 0.00 84 1010.0
20260502051417 51 233 0.0 1.0 0.00 0.00 0.00 84 1009.8
20260502050917 51 233 0.0 1.0 0.00 0.00 0.00 84 1010.1
20260502045915 51 235 0.0 1.0 0.00 0.00 0.00 84 1010.2
20260502044916 51 245 0.0 1.0 0.00 0.00 0.00 84 1010.2
20260502044412 51 246 0.0 1.0 0.00 0.00 0.00 84 1010.3
20260502043911 51 253 0.0 0.0 0.00 0.00 0.00 84 1010.3
20260502043410 51 253 0.0 1.0 0.00 0.00 0.00 84 1010.4
20260502042910 51 253 0.0 1.0 0.00 0.00 0.00 84 1010.5
20260502042410 51 258 0.0 1.0 0.00 0.00 0.00 84 1010.5
20260502040910 51 265 0.0 1.0 0.00 0.00 0.00 84 1010.4
20260502035911 51 265 0.0 1.0 0.00 0.00 0.00 84 1010.4
20260502035410 52 265 0.0 2.0 0.00 0.00 0.00 84 1010.2
20260502034910 52 265 0.0 2.0 0.00 0.00 0.00 83 1010.1
20260502034410 52 270 0.0 1.0 0.00 0.00 0.00 83 1010.2
20260502033909 52 257 0.0 1.0 0.00 0.00 0.00 83 1010.2
20260502033411 52 256 0.0 1.0 0.00 0.00 0.00 83 1010.2
20260502032909 52 271 0.0 1.0 0.00 0.00 0.00 82 1010.3
20260502031910 51 303 0.0 0.0 0.00 0.00 0.00 81 1010.6
20260502031410 51 303 0.0 0.0 0.00 0.00 0.00 81 1010.7
20260502030909 51 303 0.0 0.0 0.00 0.00 0.00 80 1010.5
20260502030410 51 303 0.0 0.0 0.00 0.00 0.00 80 1010.5
20260502025411 52 303 0.0 1.0 0.00 0.00 0.00 79 1010.7
20260502024911 52 303 0.0 1.0 0.00 0.00 0.00 79 1010.8
20260502024410 52 303 0.0 1.0 0.00 0.00 0.00 79 1010.7
20260502023910 52 305 0.0 1.0 0.00 0.00 0.00 78 1010.5
20260502022910 52 298 0.0 1.0 0.00 0.00 0.00 78 1010.6
20260502022410 52 310 0.0 0.0 0.00 0.00 0.00 78 1010.5
20260502021909 52 312 0.0 0.0 0.00 0.00 0.00 77 1010.6
20260502020909 52 311 0.0 0.0 0.00 0.00 0.00 77 1010.8
20260502020410 52 311 0.0 0.0 0.00 0.00 0.00 77 1010.7
20260502015910 52 312 0.0 0.0 0.00 0.00 0.00 76 1010.8
20260502015409 52 311 0.0 0.0 0.00 0.00 0.00 76 1010.8
20260502014910 52 312 0.0 0.0 0.00 0.00 0.00 76 1010.8
20260502014411 52 312 0.0 0.0 0.00 0.00 0.00 76 1010.7
20260502013411 53 311 0.0 0.0 0.00 0.00 0.00 76 1010.4
20260502012407 53 312 0.0 1.0 0.00 0.00 0.00 76 1010.5
20260502011908 53 312 0.0 1.0 0.00 0.00 0.00 75 1010.3
20260502011408 53 269 0.0 1.0 0.00 0.00 0.00 75 1010.3
20260502010905 53 268 0.0 1.0 0.00 0.00 0.00 76 1010.1
20260502010407 53 268 0.0 1.0 0.00 0.00 0.00 76 1010.1
20260502005905 54 262 0.0 1.0 0.00 0.00 0.00 75 1010.1
20260502005407 54 263 0.0 1.0 0.00 0.00 0.00 75 1010.2
20260502004903 54 262 0.0 1.0 0.00 0.00 0.00 75 1010.1
20260502004404 54 269 0.0 2.0 0.00 0.00 0.00 74 1010.1
20260502003903 54 278 0.0 2.0 0.00 0.00 0.00 74 1010.0
20260502003403 54 270 0.0 2.0 0.00 0.00 0.00 73 1010.1
20260502002903 54 262 0.0 2.0 0.00 0.00 0.00 73 1010.0
20260502002403 54 321 0.0 4.0 0.00 0.00 0.00 73 1010.0
20260502001901 54 278 0.0 4.0 0.00 0.00 0.00 73 1010.0
20260502001402 54 247 0.0 1.0 0.00 0.00 0.00 73 1009.9
20260501235901 54 287 0.0 4.0 0.00 0.00 0.00 71 1009.7
20260501235401 55 308 1.0 4.0 0.00 0.00 0.00 71 1009.7
20260501234901 55 276 1.0 2.0 0.00 0.00 0.00 71 1009.6
20260501234401 55 300 1.0 2.0 0.00 0.00 0.00 71 1009.6
20260501233901 55 285 1.0 3.0 0.00 0.00 0.00 72 1009.6
20260501233402 55 288 0.0 3.0 0.00 0.00 0.00 73 1009.5